Date String (YYYY-MM-DD hh:mm:ss) UTC,Instrument flags,Ambient pressure (hPa),Sample flow (lpm),Bypass flow (lpm),Sample temperature (°C),Ambient temperature (°C),ASC tube jacket temperature (°C),LED temperature (°C),Box temperature (°C),Sample RH (%),Span deviation,Mass concentration (μg/m³),Mass concentration (μg/m³),Mass concentration (μg/m³)
DateTimeUTC,F1_M11,P_M11,Q1_M11,Q2_M11,T1_M11,T2_M11,T3_M11,T4_M11,T5_M11,U1_M11,ZSPAN_M11,X0_M11,X2_M11,X1_M11
2021-10-26 01:00:00,,0817.5,4.99,0.00,30.0,26.7,00.0,39.2,31.5,14.1,0000.0,0024.31,0006.61,0004.51
2021-10-26 01:01:00,,0817.5,5.00,0.00,29.9,27.2,00.0,39.1,31.5,14.2,0000.0,0027.48,0007.02,0004.71
2021-10-26 01:02:00,,0817.5,5.00,0.00,29.9,27.5,00.0,39.1,31.5,14.2,0000.0,0029.10,0007.35,0004.86
2021-10-26 01:03:00,,0817.5,5.00,0.00,29.9,27.9,00.0,39.0,31.6,14.2,0000.0,0032.12,0007.61,0004.96
2021-10-26 01:04:00,,0817.5,5.00,0.00,29.9,28.1,00.0,39.0,31.6,14.2,0000.0,0035.11,0007.82,0005.10
2021-10-26 01:05:00,,0817.5,4.99,0.00,29.9,28.3,00.0,39.0,31.7,14.2,0000.0,0037.30,0008.12,0005.24
2021-10-26 01:06:00,,0817.5,5.01,0.00,29.9,28.5,00.0,39.0,31.7,14.2,0000.0,0037.54,0008.38,0005.37
2021-10-26 01:07:00,,0817.5,5.01,0.00,30.0,28.6,00.0,39.0,31.7,14.1,0000.0,0038.51,0008.52,0005.48
2021-10-26 01:08:00,,0817.5,4.99,0.00,30.0,28.7,00.0,39.0,31.8,14.1,0000.0,0039.89,0008.65,0005.57
2021-10-26 01:09:00,,0817.6,5.01,0.00,30.0,28.8,00.0,39.0,31.8,14.2,0000.0,0040.37,0008.82,0005.69
2021-10-26 01:10:00,,0817.6,5.01,0.00,30.0,28.9,00.0,39.0,31.8,14.2,0000.0,0039.83,0008.94,0005.81
2021-10-26 01:11:00,,0817.7,5.00,0.00,30.0,28.9,00.0,39.1,31.9,14.2,0000.0,0039.54,0009.08,0005.93
2021-10-26 01:12:00,,0817.6,5.01,0.00,30.1,29.0,00.0,39.1,31.9,14.2,0000.0,0038.88,0009.10,0006.00
2021-10-26 01:13:00,,0817.6,4.99,0.00,30.1,29.1,00.0,39.1,31.9,14.2,0000.0,0037.64,0009.11,0006.05
2021-10-26 01:14:00,,0817.6,5.01,0.00,30.1,29.1,00.0,39.1,31.9,14.2,0000.0,0035.79,0009.06,0006.11
2021-10-26 01:15:00,,0817.7,5.00,0.00,30.1,29.1,00.0,39.1,32.0,14.2,0000.0,0033.45,0009.13,0006.14
2021-10-26 01:16:00,,0817.7,4.99,0.00,30.2,29.2,00.0,39.1,32.0,14.1,0000.0,0033.13,0009.06,0006.17
2021-10-26 01:17:00,,0817.7,5.00,0.00,30.2,29.2,00.0,39.1,32.0,14.0,0000.0,0034.87,0009.00,0006.20
2021-10-26 01:18:00,,0817.6,5.00,0.00,30.2,29.2,00.0,39.2,32.1,14.1,0000.0,0035.33,0008.96,0006.22
2021-10-26 01:19:00,,0817.6,5.00,0.00,30.2,29.3,00.0,39.2,32.1,14.0,0000.0,0035.26,0008.91,0006.23
2021-10-26 01:20:00,,0817.6,5.00,0.00,30.2,29.3,00.0,39.2,32.1,14.1,0000.0,0037.56,0008.88,0006.25
2021-10-26 01:21:00,,0817.6,5.00,0.00,30.2,29.3,00.0,39.2,32.1,14.1,0000.0,0037.85,0008.90,0006.25
2021-10-26 01:22:00,,0817.6,5.00,0.00,30.3,29.4,00.0,39.2,32.1,14.1,0000.0,0037.19,0008.98,0006.25
2021-10-26 01:23:00,,0817.6,5.00,0.00,30.3,29.4,00.0,39.2,32.2,14.0,0000.0,0036.02,0009.02,0006.25
2021-10-26 01:24:00,,0817.7,5.01,0.00,30.3,28.9,00.0,39.2,32.0,14.0,0000.0,0035.90,0009.05,0006.25
2021-10-26 01:25:00,,0817.6,5.00,0.00,30.2,26.7,00.0,39.2,31.6,14.0,0000.0,0035.68,0009.06,0006.25
2021-10-26 01:26:00,,0817.7,5.00,0.00,30.0,26.2,00.0,39.2,31.4,14.1,0000.0,0036.11,0009.00,0006.24
2021-10-26 01:27:00,,0817.7,5.01,0.00,29.9,26.5,00.0,39.1,31.3,14.2,0000.0,0036.04,0009.00,0006.24
2021-10-26 01:28:00,,0817.6,5.00,0.00,29.9,26.9,00.0,39.1,31.4,14.4,0000.0,0035.11,0009.01,0006.25
2021-10-26 01:29:00,,0817.7,5.00,0.00,29.8,27.3,00.0,39.0,31.4,14.4,0000.0,0034.24,0009.02,0006.23
2021-10-26 01:30:00,,0817.6,4.99,0.00,29.8,27.6,00.0,39.0,31.4,14.5,0000.0,0032.71,0009.08,0006.18
2021-10-26 01:31:00,,0817.6,5.00,0.00,29.8,27.9,00.0,39.0,31.4,14.5,0000.0,0030.72,0009.06,0006.13
2021-10-26 01:32:00,,0817.5,5.00,0.00,29.8,28.1,00.0,39.0,31.4,14.5,0000.0,0030.83,0009.00,0006.10
2021-10-26 01:33:00,,0817.5,4.99,0.00,29.8,28.2,00.0,38.9,31.4,14.5,0003.0,0031.38,0008.85,0006.03
2021-10-26 01:34:00,,0817.6,5.01,0.00,29.8,28.3,00.0,38.9,31.5,14.5,0000.0,0031.48,0008.70,0005.97
2021-10-26 01:35:00,,0817.6,5.00,0.00,29.8,28.4,00.0,38.9,31.5,14.5,0000.0,0033.23,0008.64,0005.90
2021-10-26 01:36:00,,0817.6,5.00,0.00,29.8,28.5,00.0,38.9,31.5,14.5,0000.0,0035.20,0008.66,0005.86
2021-10-26 01:37:00,,0817.7,5.01,0.00,29.8,28.6,00.0,38.9,31.5,14.5,0000.0,0035.12,0008.64,0005.83
2021-10-26 01:38:00,,0817.6,4.99,0.00,29.8,28.6,00.0,38.9,31.5,14.5,0004.1,0035.28,0008.69,0005.79
2021-10-26 01:39:00,,0817.6,5.00,0.00,29.8,28.7,00.0,38.9,31.7,14.5,0004.9,0035.57,0008.70,0005.74
2021-10-26 01:40:00,,0817.7,5.00,0.00,29.8,28.8,00.0,38.9,31.7,14.5,0005.5,0035.07,0008.75,0005.73
2021-10-26 01:41:00,,0817.7,5.01,0.00,29.8,28.8,00.0,38.9,31.6,14.5,0004.8,0035.47,0008.80,0005.75
2021-10-26 01:42:00,,0817.6,4.99,0.00,29.8,28.8,00.0,38.9,31.7,14.5,0003.8,0035.06,0008.88,0005.79
2021-10-26 01:43:00,,0817.6,5.01,0.00,29.8,28.9,00.0,38.9,31.6,14.4,0004.2,0035.89,0008.93,0005.79
2021-10-26 01:44:00,,0817.6,5.01,0.00,29.8,28.9,00.0,38.9,31.6,14.4,0000.5,0036.96,0008.95,0005.78
2021-10-26 01:45:00,,0817.6,5.00,0.00,29.8,28.9,00.0,38.9,31.5,14.5,0002.3,0038.62,0008.98,0005.80
2021-10-26 01:46:00,,0817.5,5.00,0.00,29.8,28.9,00.0,38.9,31.5,14.6,0003.6,0037.72,0009.05,0005.86
2021-10-26 01:47:00,,0817.5,5.01,0.00,29.8,28.9,00.0,38.9,31.5,14.6,0002.2,0037.84,0009.10,0005.93
2021-10-26 01:48:00,,0817.5,5.00,0.00,29.8,28.8,00.0,38.9,31.5,14.6,0000.8,0038.95,0009.17,0005.97
2021-10-26 01:49:00,,0817.5,5.00,0.00,29.8,28.8,00.0,38.9,31.5,14.6,0000.0,0039.98,0009.25,0006.02
2021-10-26 01:50:00,,0817.4,4.99,0.00,29.7,28.8,00.0,38.9,31.4,14.7,0000.0,0040.58,0009.29,0006.07
2021-10-26 01:51:00,,0817.5,5.00,0.00,29.7,28.8,00.0,38.9,31.4,14.6,0000.0,0041.65,0009.28,0006.07
2021-10-26 01:52:00,,0817.5,5.01,0.00,29.7,28.8,00.0,38.9,31.4,14.6,0000.0,0042.49,0009.23,0006.07
2021-10-26 01:53:00,,0817.5,5.00,0.00,29.7,28.8,00.0,38.9,31.4,14.6,0000.0,0042.86,0009.18,0006.06
2021-10-26 01:54:00,,0817.5,4.99,0.00,29.7,28.9,00.0,38.9,31.5,14.5,0000.0,0041.51,0009.13,0006.06
2021-10-26 01:55:00,,0817.5,4.99,0.00,29.8,28.9,00.0,38.9,31.5,14.5,0000.0,0040.58,0009.11,0006.05
2021-10-26 01:56:00,,0817.5,5.00,0.00,29.8,29.0,00.0,38.9,31.6,14.4,0000.0,0040.51,0009.08,0006.03
2021-10-26 01:57:00,,0817.5,5.00,0.00,29.8,29.0,00.0,38.9,31.6,14.3,0000.0,0039.71,0008.94,0005.93
2021-10-26 01:58:00,,0817.5,5.00,0.00,29.9,29.1,00.0,38.9,31.7,14.3,0000.0,0038.04,0008.78,0005.82
2021-10-26 01:59:00,,0817.4,5.00,0.00,29.9,29.1,00.0,38.9,31.8,14.2,0000.0,0036.54,0008.62,0005.70
